#timestamp,LO_Frequency,Hit,StdDev 
1630242015.3,286046998.1,P
1630242035.2,286047001.0,N
1630242055.9,286047000.2,N
1630242075.7,286047002.8,N
1630242095.6,286047002.8,N
1630242115.4,286047002.6,N
1630242135.3,286047001.6,N
1630242155.1,286047004.0,N
1630242156.0,286047004.0,N
1630242175.8,286047004.2,N
1630242195.7,286047003.6,N
1630242215.5,286047003.8,N
1630242235.3,286047003.8,N
1630242255.2,286047004.0,N
1630242275.0,286047004.3,N
1630242275.9,286047004.3,N
1630242295.8,286047002.6,N
1630242315.6,286047001.7,N
1630242335.4,286047001.7,N
1630242355.3,286047001.3,N
1630242375.1,286047003.9,N
1630242395.8,286047003.9,N
1630242415.7,286047003.8,N
1630242435.5,286047003.4,N
1630242455.3,286047003.6,N
1630242475.2,286047003.5,N
1630242495.0,286047004.1,N
1630242495.9,286047004.1,N
1630242515.8,286047003.9,N
1630242535.6,286047002.1,N
1630242555.4,286047001.6,N
1630242575.3,286047002.1,N
1630242595.1,286047004.4,Y
1630242615.9,286047001.1,P
1630242635.7,286046998.5,N
1630242655.5,286047001.1,N
1630242675.4,286046998.7,N
1630242695.2,286047001.2,N
1630242715.0,286047001.1,N
1630242716.0,286047001.1,N
1630242735.8,286047000.5,N
1630242755.6,286047000.7,N
1630242775.5,286047000.8,N
1630242795.3,286047000.8,N
1630242815.1,286046998.4,N
1630242835.9,286046998.4,N
1630242855.7,286047000.3,N
1630242875.6,286046999.9,N
1630242895.4,286047000.0,N
1630242915.2,286047000.6,N
1630242935.1,286047001.2,N
1630242936.0,286047001.2,N
1630242955.8,286047001.2,N
1630242975.6,286047000.7,N
1630242995.5,286047001.0,N
1630243015.3,286047000.0,N
1630243035.2,286047000.0,N
1630243055.9,286047000.4,N
1630243075.7,286047000.5,N
1630243095.6,286047000.8,N
1630243115.4,286047000.5,N
1630243135.2,286047000.5,N
1630243155.1,286047001.2,N
1630243156.0,286047001.2,N
1630243175.8,286047001.2,N
1630243195.7,286046998.3,N
1630243215.5,286046999.2,N
1630243235.3,286046997.0,Y
1630243255.2,286046997.0,P
1630243275.0,286046996.5,N
1630243275.9,286046996.5,N
1630243295.7,286046999.2,N
1630243315.6,286046998.4,N
1630243335.4,286046998.8,N
1630243355.3,286046999.5,N
1630243375.1,286046997.3,N
1630243395.8,286046996.6,N
1630243415.7,286046999.0,N
1630243435.5,286046997.3,N
1630243455.3,286046996.9,N
1630243475.2,286046996.6,N
1630243495.0,286046998.8,N
1630243495.9,286046998.8,N
1630243515.8,286046999.4,N
1630243535.6,286046999.3,N
1630243555.4,286046999.6,N
1630243575.3,286046999.4,N
1630243595.1,286046998.5,N
1630243615.8,286047001.1,N
1630243635.7,286047000.8,N
1630243655.5,286047001.2,N
1630243675.4,286046998.5,N
1630243695.2,286046999.0,N
1630243715.0,286046998.2,N
1630243715.9,286046998.2,N
1630243735.8,286047002.7,N
1630243755.6,286047000.0,N
1630243775.4,286047001.0,N
1630243795.3,286047001.1,N
1630243815.1,286047000.9,N
1630243835.9,286047000.4,N
1630243855.7,286047000.4,N
1630243875.5,286047000.0,N
1630243895.4,286047001.0,N
1630243915.2,286047001.0,N
1630243935.0,286046998.2,N
1630243935.9,286046998.2,N
1630243955.8,286047001.0,N
1630243975.6,286047000.9,N
1630243995.5,286047000.5,N
1630244015.3,286047000.3,N
1630244035.1,286046998.3,N
1630244055.9,286046996.6,N
1630244075.7,286046999.2,N
1630244095.5,286046996.8,N
1630244115.4,286046996.9,N
1630244135.2,286046996.5,N
1630244155.1,286046996.5,N
1630244156.0,286046996.5,N
1630244175.8,286046998.7,N
1630244195.6,286046996.5,N
1630244215.5,286046999.6,N
1630244235.6,286046996.9,N
1630244255.4,286046999.6,N
1630244275.3,286046997.8,N
1630244295.1,286046995.2,N
1630244315.8,286046995.5,N
1630244335.7,286046996.1,N
1630244355.5,286046995.7,N
1630244375.4,286046995.4,N
1630244395.2,286046997.6,N
1630244415.0,286046997.7,N
1630244416.0,286046997.7,N
1630244435.8,286046995.4,N
1630244455.7,286046995.5,N
1630244475.5,286046995.4,N
1630244495.3,286046995.4,N
1630244515.2,286046997.6,N
1630244535.0,286046997.6,N
1630244535.9,286046997.6,N
1630244555.8,286046994.9,Y
1630244575.6,286046998.5,P
1630244595.5,286047000.8,N
1630244615.3,286046998.9,N
1630244635.1,286046999.6,N
1630244655.9,286046998.3,N
1630244675.7,286046999.5,N
1630244695.5,286046996.7,Y
1630244715.4,286046998.4,P
1630244735.2,286046999.5,N
1630244755.1,286046996.6,P
1630244756.0,286046996.6,Y
1630244775.8,286047000.7,P
1630244795.6,286047001.1,N
1630244815.5,286046998.6,N
1630244835.3,286046998.2,N
1630244855.1,286047000.6,N
1630244875.9,286047000.0,N
1630244895.7,286047001.1,N
1630244915.6,286046998.5,N
1630244935.4,286046998.1,N
1630244955.2,286046998.4,N
1630244975.1,286046998.1,N
1630244976.0,286046998.1,N
1630244995.8,286046998.8,N
1630245015.6,286046998.2,N
1630245035.5,286046998.7,N
1630245055.3,286047001.1,N
1630245075.2,286047000.6,N
1630245095.9,286046999.9,N
1630245115.7,286046998.2,N
1630245135.6,286046999.0,N
1630245155.4,286046998.8,N
1630245175.2,286046999.3,N
1630245195.1,286046999.9,N
1630245196.0,286046999.9,N
1630245215.8,286047000.3,N
1630245235.7,286046999.8,N
1630245255.5,286046999.8,N
1630245275.3,286047000.4,N
1630245295.2,286047000.3,N
1630245315.0,286047001.1,N
1630245315.9,286047001.1,N
1630245335.8,286046998.7,N
1630245355.6,286047001.1,N
1630245375.4,286046998.9,N
1630245395.3,286046998.4,N
1630245415.1,286046998.8,N
1630245435.9,286046998.8,N
1630245455.7,286046999.4,N
1630245475.4,286046999.0,N
1630245495.2,286046998.8,N
1630245515.1,286046996.9,Y
1630245516.0,286046996.9,P
1630245535.8,286047000.8,N
1630245555.6,286047001.2,N
1630245575.5,286047001.1,N
1630245595.3,286047000.9,N
